Location: *
(10.5081°N, 66.9194°W)
Time: 04:36:03
(UTC+00:00)

Cosmos 1674 - Pass Details

Date: 30 March 2020
Orbit: 495 x 518 km, 82.5° (Epoch: 25 May)

Event Time Altitude Azimuth Distance (km) Brightness Sun altitude
Rises 22:59:24 0° 20° (NNE) 2,575 6.1 -6.0°
Reaches altitude 10° 23:02:04 10° 41° (NE) 1,690 5.0 -6.6°
Maximum altitude 23:04:35 17° 84° (E) 1,289 4.1 -7.2°
Drops below altitude 10° 23:07:06 10° 127° (SE) 1,686 4.8 -7.9°
Sets 23:09:44 0° 147° (SSE) 2,568 5.9 -8.5°
